Hourly Data Report for August 03, 2004

TORONTO CITY
ONTARIO

43°40'00.000" N
79°24'00.000" W
112.50 m
6158355
71508
XTO

Download Data

Hourly Data (August 2004)
Hourly Data Report for August 3, 2004
TIME
LST
Temp Definition
°C
Dew Point Definition
°C
Rel Hum Definition
%
Precip. Amount Definition
mm

Wind Dir Definition
10's deg

Wind Spd Definition
km/h
Visibility Definition
km
Stn Press Definition
kPa
Hmdx Definition


Wind Chill Definition


Weather Definition


00:00 22.6 17.6 73   LegendMM LegendMM LegendMM 99.79 28   LegendNANA
01:00 22.2 17.9 77   LegendMM LegendMM LegendMM 99.78 28   LegendNANA
02:00 21.8 17.9 79   LegendMM LegendMM LegendMM 99.74 28   LegendNANA
03:00 21.7 17.5 77   LegendMM LegendMM LegendMM 99.73 27   LegendNANA
04:00 21.4 17.8 80   LegendMM LegendMM LegendMM 99.75 27   LegendNANA
05:00 20.7 17.9 84   LegendMM LegendMM LegendMM 99.73 27   LegendNANA
06:00 21.5 18.1 81   LegendMM LegendMM LegendMM 99.77 28   LegendNANA
07:00 21.7 19.0 85   LegendMM LegendMM LegendMM 99.77 28   LegendNANA
08:00 22.1 19.2 84   LegendMM LegendMM LegendMM 99.74 29   LegendNANA
09:00 23.5 19.7 79   LegendMM LegendMM LegendMM 99.68 31   LegendNANA
10:00 24.7 20.1 76   LegendMM LegendMM LegendMM 99.68 32   LegendNANA
11:00 24.5 20.1 77   LegendMM LegendMM LegendMM 99.70 32   LegendNANA
12:00 25.2 20.3 74   LegendMM LegendMM LegendMM 99.67 33   LegendNANA
13:00 26.3 22.4 79   LegendMM LegendMM LegendMM 99.64 36   LegendNANA
14:00 27.7 21.0 67   LegendMM LegendMM LegendMM 99.59 36   LegendNANA
15:00 28.8 20.6 61   LegendMM LegendMM LegendMM 99.56 37   LegendNANA
16:00 28.8 19.8 58   LegendMM LegendMM LegendMM 99.54 36   LegendNANA
17:00 28.2 19.5 59   LegendMM LegendMM LegendMM 99.55 35   LegendNANA
18:00 28.4 18.6 55   LegendMM LegendMM LegendMM 99.54 35   LegendNANA
19:00 26.3 20.0 68   LegendMM LegendMM LegendMM 99.58 34   LegendNANA
20:00 25.0 17.1 62   LegendMM LegendMM LegendMM 99.61 30   LegendNANA
21:00 24.0 16.8 64   LegendMM LegendMM LegendMM 99.65 29   LegendNANA
22:00 22.5 17.6 74   LegendMM LegendMM LegendMM 99.64 28   LegendNANA
23:00 21.8 18.2 80   LegendMM LegendMM LegendMM 99.64 28   LegendNANA

Notes on Data Quality.

Legend

  • E = Estimated
  • M = Missing
  • NA = Not Available*
  • [empty] = Indicates an unobserved value
Date modified: